Miscellaneous Local Product
Issued by NWS North Platte, NE

Home | Current Version | Previous Version | Graphics & Text | Print | Product List | Glossary On
Versions: 1 2 3 4 5 6 7 8 9 10 11 12 13 14 15 16 17 18 19 20 21 22 23 24 25 26 27 28 29 30 31 32 33 34 35 36 37 38 39 40 41 42 43 44 45 46 47 48 49 50
000
AXUS43 KLBF 310510
MISLBF


WESTERN AND NORTH CENTRAL NEBRASKA HOURLY WEATHER ROUNDUP
NATIONAL WEATHER SERVICE NORTH PLATTE NE
1200 AM CDT SUN AUG 31 2014

***STATIONS NOT REPORTING VARIABLES SUCH AS SKY/WEATHER OR
PRESSURE ARE PROVIDED BY THE NEBRASKA DEPARTMENT OF
ROADS...RAWS...AND APRS NETWORKS...AND ARE NOT UNDER
NATIONAL WEATHER SERVICE QUALITY CONTROL***

...OBSERVATIONS IN AND NEAR THE EASTERN PANHANDLE OF NEBRASKA...

CITY           SKY/WX    TMP DP  RH WIND       PRES   REMARKS
PINE RIDGE     CLOUDY    69  54  58 S7        29.80R
CHADRON        MOCLDY    70  55  59 NW13      29.81R
ALLIANCE       CLOUDY    68  53  58 SE10      29.85F
SIDNEY         CLOUDY    73  47  39 S7        29.92S
WHITECLAY        N/A     74  51  44 S9          N/A
RUSHVILLE        N/A     71  52  50 W17         N/A
GORDON           N/A     74  53  46 S18         N/A
CRESCENT LAKE    N/A     71  44  38 NW7G36      N/A
LISCO            N/A     72  55  55 E5          N/A
BIG SPRINGS      N/A     75  57  53 CALM        N/A
$$

...OBSERVATIONS IN NORTH CENTRAL NEBRASKA...

CITY           SKY/WX    TMP DP  RH WIND       PRES   REMARKS
VALENTINE      MOCLDY    76  63  64 SW13      29.77R
THEDFORD       PTCLDY    76  61  59 W14G26    29.85R
AINSWORTH      PTCLDY    71  64  78 S20       29.76S
O`NEILL        CLEAR     71  67  88 SE12      29.79F
ORD            CLEAR     70  65  84 SE7       29.80S
BROKEN BOW     CLEAR     68  63  84 SE6       29.82S
SPRINGVIEW       N/A     73  66  78 SE7         N/A
ROSE             N/A     74  71  89 E13         N/A
NEWPORT          N/A     73  68  84 S13         N/A
COMSTOCK         N/A     75  70  83 S13         N/A
CHAMBERS         N/A     69  65  88 SE7         N/A
EWING            N/A     67  65  93 CALM        N/A
$$

...OBSERVATIONS IN SOUTHWEST NEBRASKA AND FAR NORTHEAST COLORADO...

CITY           SKY/WX    TMP DP  RH WIND       PRES   REMARKS
WRAY             N/A     71  51  48 W6        29.91R
HOLYOKE        FAIR      73  50  43 NW6       29.90R
IMPERIAL       PTCLDY    73  57  57 SW9G20    29.86R
OGALLALA       MOCLDY    73  53  49 NW7       29.86S
NORTH PLATTE   CLEAR     73  55  53 S15G22    29.80F
MCCOOK         PTCLDY    75  54  47 S17G24    29.83F
LEXINGTON      CLEAR     74  60  61 S16G22    29.83S
PAXTON           N/A     72  58  61 S12         N/A
SUTHERLAND       N/A     80  59  48 W10         N/A
BRADY            N/A     70  58  66 CALM        N/A
GOTHENBURG       N/A     73  56  54 SE5         N/A
CALLAWAY         N/A     66  63  91 S9          N/A
$$

...SOME WEATHER OBSERVATIONS FROM AROUND THE REGION...

CITY           SKY/WX    TMP DP  RH WIND       PRES   REMARKS
DENVER         CLOUDY    69  44  40 CALM      29.99R
LARAMIE        MOCLDY    52  45  77 W23G29    30.12R
CHEYENNE       MOCLDY    56  47  71 W9        30.01F
SCOTTSBLUFF    CLOUDY    69  51  52 S8        29.86F
RAPID CITY     CLOUDY    67  53  61 N14       29.78F
PIERRE         CLOUDY    69  64  84 SE10      29.66R
WINNER         FAIR      74  64  71 W14G28    29.75R
SIOUX FALLS    CLEAR     66  60  81 SE8       29.83S
OMAHA          CLEAR     70  64  81 SE5       29.86F
GRAND ISLAND   CLEAR     72  64  76 S13       29.83F
KANSAS CITY    CLEAR     71  66  84 SE7       29.90F
WICHITA        CLEAR     75  62  64 SE9       29.90R
HAYS           CLEAR     75  55  50 S16       29.87S
LIBERAL        PTCLDY    75  55  50 S12       29.93S
GOODLAND       CLEAR     71  55  56 S15       29.90S
$$



USA.gov is the U.S. government's official web portal to all federal, state and local government web resources and services.